WB4FAY-4 Weather Reports


time (UTC)temp
C
wind
direction
speed
KPH
gust
KPH
rain 1hr
cm
rain 24hr
cm
rain mn
cm
humidity
%
barometer
mb
20260906064517 26 0 0.0 0.0 0.00 0.00 0.00 85 1013.2
20260906064017 26 0 0.0 0.0 0.00 0.00 0.00 85 1013.3
20260906063517 26 0 0.0 0.0 0.00 0.00 0.00 85 1013.3
20260906063017 26 0 0.0 0.0 0.00 0.00 0.00 85 1013.4
20260906062517 27 0 0.0 0.0 0.00 0.00 0.00 84 1013.5
20260906062018 26 0 0.0 0.0 0.00 0.00 0.00 85 1013.5
20260906061517 26 0 0.0 0.0 0.00 0.00 0.00 85 1013.5
20260906061017 26 0 0.0 0.0 0.00 0.00 0.00 85 1013.7
20260906060518 26 0 0.0 0.0 0.00 0.00 0.00 85 1013.8
20260906060017 27 0 0.0 0.0 0.00 0.00 0.00 84 1013.7
20260906055517 26 0 0.0 0.0 0.00 0.00 0.00 84 1013.9
20260906055018 26 0 0.0 0.0 0.00 0.00 0.00 84 1013.9
20260906054517 27 0 0.0 0.0 0.00 0.00 0.00 84 1013.8
20260906054017 26 0 0.0 0.0 0.00 0.00 0.00 84 1013.7
20260906053517 27 0 0.0 0.0 0.00 0.00 0.00 83 1013.9
20260906053017 27 0 0.0 0.0 0.00 0.00 0.00 83 1013.9
20260906052517 27 0 0.0 0.0 0.00 0.00 0.00 83 1013.8
20260906052017 27 0 0.0 0.0 0.00 0.00 0.00 83 1014.0
20260906051517 27 0 0.0 0.0 0.00 0.00 0.00 82 1014.0
20260906051017 27 0 0.0 0.0 0.00 0.00 0.00 82 1014.0
20260906050517 27 0 0.0 0.0 0.00 0.00 0.00 82 1014.1
20260906050017 27 0 0.0 0.0 0.00 0.00 0.00 82 1014.1
20260906045517 27 0 0.0 0.0 0.00 0.00 0.00 82 1014.0
20260906045017 27 0 0.0 0.0 0.00 0.00 0.00 81 1013.9
20260906044517 27 0 0.0 0.0 0.00 0.00 0.00 81 1014.1
20260906044017 27 0 0.0 0.0 0.00 0.00 0.00 81 1014.1
20260906043517 27 0 0.0 0.0 0.00 0.00 0.00 81 1014.1
20260906043017 27 59 0.0 6.4 0.00 0.00 0.00 81 1014.1
20260906042517 27 93 0.0 4.8 0.00 0.00 0.00 81 1014.0
20260906042018 27 0 0.0 0.0 0.00 0.00 0.00 81 1013.9
20260906041517 27 0 0.0 0.0 0.00 0.00 0.00 81 1013.9
20260906041017 27 0 0.0 0.0 0.00 0.00 0.00 81 1013.8
20260906040517 27 0 0.0 0.0 0.00 0.00 0.00 81 1013.8
20260906040018 27 0 0.0 0.0 0.00 0.00 0.00 81 1013.8
20260906035517 27 0 0.0 0.0 0.00 0.00 0.00 80 1013.8
20260906035017 27 332 0.0 0.0 0.00 0.00 0.00 80 1013.9
20260906034517 27 335 0.0 1.6 0.00 0.00 0.00 80 1013.8
20260906034017 27 0 0.0 0.0 0.00 0.00 0.00 80 1013.9
20260906033517 27 0 0.0 0.0 0.00 0.00 0.00 80 1014.0
20260906033017 27 0 0.0 0.0 0.00 0.00 0.00 80 1014.0
20260906032518 27 0 0.0 0.0 0.00 0.00 0.00 80 1014.0
20260906032017 27 0 0.0 0.0 0.00 0.00 0.00 79 1013.9
20260906031517 27 0 0.0 0.0 0.00 0.00 0.00 79 1013.8
20260906031022 27 0 0.0 0.0 0.00 0.00 0.00 79 1013.8
20260906030517 27 0 0.0 0.0 0.00 0.00 0.00 79 1013.8
20260906030017 28 0 0.0 0.0 0.00 0.00 0.00 79 1013.7
20260906025517 28 0 0.0 0.0 0.00 0.00 0.00 79 1013.7
20260906025017 28 0 0.0 0.0 0.00 0.00 0.00 79 1013.7
20260906024517 28 0 0.0 0.0 0.00 0.00 0.00 78 1013.8
20260906024017 28 0 0.0 0.0 0.00 0.00 0.00 78 1013.7
20260906023517 28 0 0.0 0.0 0.00 0.00 0.00 77 1013.7
20260906023017 28 0 0.0 0.0 0.00 0.00 0.00 77 1013.8
20260906022517 28 0 0.0 0.0 0.00 0.00 0.00 76 1013.8
20260906022017 28 0 0.0 0.0 0.00 0.00 0.00 77 1013.8
20260906021517 28 0 0.0 0.0 0.00 0.00 0.00 76 1013.7
20260906021017 28 0 0.0 0.0 0.00 0.00 0.00 76 1013.6
20260906020517 28 0 0.0 0.0 0.00 0.00 0.00 75 1013.6
20260906020018 28 0 0.0 0.0 0.00 0.00 0.00 75 1013.6
20260906015517 29 0 0.0 0.0 0.00 0.00 0.00 74 1013.5
20260906015017 29 0 0.0 0.0 0.00 0.00 0.00 74 1013.4
20260906014517 29 0 0.0 0.0 0.00 0.00 0.00 74 1013.2
20260906014017 29 0 0.0 0.0 0.00 0.00 0.00 73 1013.1
20260906013517 29 0 0.0 0.0 0.00 0.00 0.00 73 1013.0
20260906013017 29 0 0.0 0.0 0.00 0.00 0.00 72 1012.9
20260906012517 29 0 0.0 0.0 0.00 0.00 0.00 72 1012.8
20260906012017 29 198 0.0 4.8 0.00 0.00 0.00 72 1012.7
20260906011517 29 198 1.6 6.4 0.00 0.00 0.00 72 1012.6
20260906011017 30 223 3.2 4.8 0.00 0.00 0.00 72 1012.5
20260906010517 30 216 1.6 6.4 0.00 0.00 0.00 72 1012.5
20260906010017 30 268 0.0 3.2 0.00 0.00 0.00 71 1012.4
20260906005517 30 253 1.6 4.8 0.00 0.00 0.00 71 1012.4
20260906005017 30 240 4.8 1.6 0.00 0.00 0.00 70 1012.4
20260906004517 30 223 0.0 8.0 0.00 0.00 0.00 70 1012.4
20260906004018 30 227 4.8 4.8 0.00 0.00 0.00 70 1012.4
20260906003517 30 272 1.6 8.0 0.00 0.00 0.00 69 1012.4
20260906003018 30 292 1.6 4.8 0.00 0.00 0.00 68 1012.4
20260906002517 30 196 1.6 9.7 0.00 0.00 0.00 68 1012.4
20260906002017 30 233 6.4 4.8 0.00 0.00 0.00 68 1012.3
20260906001517 30 0 0.0 0.0 0.00 0.00 0.00 67 1012.3
20260906001017 31 215 0.0 3.2 0.00 0.00 0.00 67 1012.5
20260906000517 31 199 0.0 9.7 0.00 0.00 0.00 66 1012.5
20260906000017 31 254 1.6 9.7 0.00 0.00 0.00 67 1012.5
20260905235517 31 244 4.8 6.4 0.00 0.00 0.00 67 1012.5
20260905235017 31 203 6.4 9.7 0.00 0.00 0.00 67 1012.5
20260905234517 31 192 4.8 11.3 0.00 0.00 0.00 66 1012.5
20260905234017 31 199 0.0 16.1 0.00 0.00 0.00 65 1012.6
20260905233517 31 0 0.0 0.0 0.00 0.00 0.00 65 1012.4
20260905233017 31 236 0.0 6.4 0.00 0.00 0.00 64 1012.4
20260905232517 31 191 4.8 9.7 0.00 0.00 0.00 64 1012.4
20260905232018 32 199 0.0 9.7 0.00 0.00 0.00 63 1012.3
20260905231517 32 199 0.0 12.9 0.00 0.00 0.00 62 1012.3
20260905231017 32 223 6.4 8.0 0.00 0.00 0.00 62 1012.3
20260905230517 32 199 3.2 8.0 0.00 0.00 0.00 60 1012.1
20260905230017 32 267 0.0 11.3 0.00 0.00 0.00 59 1012.2
20260905225517 33 193 4.8 17.7 0.00 0.00 0.00 58 1012.2
20260905225017 33 304 8.0 16.1 0.00 0.00 0.00 57 1012.3
20260905224517 33 209 1.6 8.0 0.00 0.00 0.00 55 1012.3
20260905224017 33 202 1.6 12.9 0.00 0.00 0.00 55 1012.1
20260905223517 34 199 3.2 12.9 0.00 0.00 0.00 54 1012.1
20260905223017 34 0 0.0 0.0 0.00 0.00 0.00 53 1012.1
20260905222517 34 0 0.0 0.0 0.00 0.00 0.00 50 1012.2
20260905222018 35 301 0.0 8.0 0.00 0.00 0.00 49 1012.1
20260905221517 35 0 0.0 0.0 0.00 0.00 0.00 46 1012.0
20260905221017 35 0 0.0 0.0 0.00 0.00 0.00 44 1011.9
20260905220517 35 0 0.0 0.0 0.00 0.00 0.00 43 1011.9
20260905220017 35 0 0.0 0.0 0.00 0.00 0.00 44 1012.0
20260905215517 35 0 0.0 0.0 0.00 0.00 0.00 44 1011.8
20260905215017 35 0 0.0 0.0 0.00 0.00 0.00 44 1011.9
20260905214517 36 79 0.0 3.2 0.00 0.00 0.00 41 1011.9
20260905214018 36 0 0.0 0.0 0.00 0.00 0.00 38 1011.8
20260905213517 37 0 0.0 0.0 0.00 0.00 0.00 37 1011.8
20260905213017 37 0 0.0 0.0 0.00 0.00 0.00 37 1011.9
20260905212518 37 137 0.0 4.8 0.00 0.00 0.00 37 1011.9
20260905212018 37 102 0.0 6.4 0.00 0.00 0.00 37 1012.0
20260905211517 37 360 4.8 6.4 0.00 0.00 0.00 37 1012.1
20260905211018 37 28 0.0 4.8 0.00 0.00 0.00 37 1012.1
20260905210517 37 85 0.0 9.7 0.00 0.00 0.00 36 1012.0
20260905210018 37 76 0.0 9.7 0.00 0.00 0.00 35 1012.1
20260905205517 38 154 3.2 9.7 0.00 0.00 0.00 35 1012.1
20260905205017 38 113 0.0 8.0 0.00 0.00 0.00 35 1012.1
20260905204518 38 73 1.6 8.0 0.00 0.00 0.00 34 1012.2
20260905204017 38 103 3.2 6.4 0.00 0.00 0.00 33 1012.2
20260905203517 37 103 0.0 4.8 0.00 0.00 0.00 35 1012.2
20260905203017 37 164 0.0 9.7 0.00 0.00 0.00 36 1012.3
20260905202517 37 37 0.0 8.0 0.00 0.00 0.00 36 1012.3
20260905202018 37 17 3.2 9.7 0.00 0.00 0.00 36 1012.4
20260905201517 37 55 4.8 6.4 0.00 0.00 0.00 36 1012.5
20260905201017 37 158 3.2 9.7 0.00 0.00 0.00 36 1012.5
20260905200517 37 178 1.6 12.9 0.00 0.00 0.00 36 1012.5
20260905200017 37 82 9.7 11.3 0.00 0.00 0.00 37 1012.6
20260905195518 37 79 3.2 12.9 0.00 0.00 0.00 37 1012.6
20260905195017 37 89 12.9 6.4 0.00 0.00 0.00 38 1012.6
20260905194517 36 93 1.6 12.9 0.00 0.00 0.00 38 1012.7
20260905194017 36 34 0.0 8.0 0.00 0.00 0.00 40 1012.7
20260905193517 36 45 4.8 6.4 0.00 0.00 0.00 41 1012.7
20260905193017 36 72 3.2 9.7 0.00 0.00 0.00 41 1012.8
20260905192517 36 106 1.6 16.1 0.00 0.00 0.00 40 1012.9
20260905192017 36 96 0.0 9.7 0.00 0.00 0.00 40 1013.0
20260905191517 36 52 3.2 6.4 0.00 0.00 0.00 39 1013.0
20260905191017 36 106 0.0 12.9 0.00 0.00 0.00 38 1013.1
20260905190517 36 86 4.8 6.4 0.00 0.00 0.00 38 1013.2
20260905190017 36 37 0.0 6.4 0.00 0.00 0.00 41 1013.2
20260905185517 36 75 3.2 11.3 0.00 0.00 0.00 39 1013.1
20260905185018 36 49 4.8 12.9 0.00 0.00 0.00 40 1013.3
20260905184517 36 92 0.0 11.3 0.00 0.00 0.00 40 1013.4
20260905184017 36 90 8.0 12.9 0.00 0.00 0.00 40 1013.6
20260905183517 36 32 0.0 9.7 0.00 0.00 0.00 39 1013.6
20260905183017 35 95 0.0 12.9 0.00 0.00 0.00 41 1013.7
20260905182517 35 97 9.7 14.5 0.00 0.00 0.00 42 1013.8
20260905182018 35 7 1.6 9.7 0.00 0.00 0.00 44 1013.9
20260905181517 35 350 0.0 6.4 0.00 0.00 0.00 45 1014.0
20260905181017 35 35 0.0 8.0 0.00 0.00 0.00 44 1014.1
20260905180517 35 85 1.6 14.5 0.00 0.00 0.00 44 1014.2
20260905180017 35 326 4.8 6.4 0.00 0.00 0.00 45 1014.2
20260905175517 35 360 3.2 11.3 0.00 0.00 0.00 44 1014.3
20260905175017 35 42 0.0 17.7 0.00 0.00 0.00 42 1014.3
20260905174517 35 90 8.0 9.7 0.00 0.00 0.00 44 1014.5
20260905174017 35 69 1.6 8.0 0.00 0.00 0.00 44 1014.5
20260905173517 35 99 8.0 6.4 0.00 0.00 0.00 44 1014.5
20260905173018 35 62 0.0 8.0 0.00 0.00 0.00 44 1014.5
20260905172517 35 0 0.0 0.0 0.00 0.00 0.00 44 1014.6
20260905172017 35 116 0.0 6.4 0.00 0.00 0.00 44 1014.6
20260905171517 35 62 0.0 8.0 0.00 0.00 0.00 45 1014.7
20260905171017 35 17 0.0 14.5 0.00 0.00 0.00 46 1014.7
20260905170517 35 65 0.0 12.9 0.00 0.00 0.00 46 1014.9
20260905170017 35 76 4.8 12.9 0.00 0.00 0.00 45 1014.9
20260905165517 35 13 0.0 11.3 0.00 0.00 0.00 46 1014.9
20260905165017 35 356 3.2 6.4 0.00 0.00 0.00 46 1014.9
20260905164517 35 32 0.0 4.8 0.00 0.00 0.00 49 1015.0
20260905164017 34 13 3.2 9.7 0.00 0.00 0.00 47 1015.1
20260905163518 34 92 4.8 12.9 0.00 0.00 0.00 48 1015.2
20260905163017 34 79 4.8 14.5 0.00 0.00 0.00 48 1015.2
20260905162517 34 93 6.4 9.7 0.00 0.00 0.00 48 1015.2
20260905162017 33 99 8.0 11.3 0.00 0.00 0.00 49 1015.2
20260905161517 33 102 0.0 12.9 0.00 0.00 0.00 50 1015.3
20260905161017 33 343 0.0 9.7 0.00 0.00 0.00 52 1015.3
20260905160517 33 332 3.2 9.7 0.00 0.00 0.00 52 1015.3
20260905160018 33 360 0.0 11.3 0.00 0.00 0.00 53 1015.3
20260905155517 33 14 0.0 4.8 0.00 0.00 0.00 54 1015.2
20260905155017 33 360 0.0 9.7 0.00 0.00 0.00 52 1015.3
20260905154517 33 82 4.8 12.9 0.00 0.00 0.00 53 1015.3
20260905154017 33 107 0.0 11.3 0.00 0.00 0.00 54 1015.2
20260905153517 33 61 1.6 8.0 0.00 0.00 0.00 53 1015.2
20260905153018 32 10 1.6 11.3 0.00 0.00 0.00 54 1015.2
20260905152517 32 99 3.2 8.0 0.00 0.00 0.00 55 1015.3
20260905152017 32 313 1.6 12.9 0.00 0.00 0.00 54 1015.3
20260905151522 32 315 0.0 1.6 0.00 0.00 0.00 57 1015.3
20260905151017 32 42 1.6 8.0 0.00 0.00 0.00 57 1015.2
20260905150517 32 64 1.6 8.0 0.00 0.00 0.00 57 1015.3
20260905150017 32 90 4.8 11.3 0.00 0.00 0.00 58 1015.3
20260905145517 31 85 9.7 9.7 0.00 0.00 0.00 59 1015.3
20260905145017 31 89 1.6 14.5 0.00 0.00 0.00 60 1015.3
20260905144517 31 27 11.3 9.7 0.00 0.00 0.00 62 1015.3
20260905144018 31 80 3.2 9.7 0.00 0.00 0.00 63 1015.4
20260905143517 30 117 0.0 9.7 0.00 0.00 0.00 63 1015.4
20260905143017 30 20 3.2 9.7 0.00 0.00 0.00 65 1015.5
20260905142518 30 102 0.0 8.0 0.00 0.00 0.00 67 1015.5
20260905142017 30 92 4.8 12.9 0.00 0.00 0.00 68 1015.5
20260905141517 29 333 4.8 4.8 0.00 0.00 0.00 71 1015.5
20260905141017 28 261 1.6 3.2 0.00 0.00 0.00 73 1015.4
20260905140517 28 219 0.0 3.2 0.00 0.00 0.00 75 1015.4
20260905140017 28 217 0.0 3.2 0.00 0.00 0.00 77 1015.5
20260905135517 28 126 1.6 3.2 0.00 0.00 0.00 78 1015.5
20260905135017 27 112 1.6 6.4 0.00 0.00 0.00 80 1015.6
20260905134518 27 123 1.6 4.8 0.00 0.00 0.00 82 1015.6
20260905134017 27 116 0.0 3.2 0.00 0.00 0.00 83 1015.6
20260905133517 26 0 0.0 0.0 0.00 0.00 0.00 85 1015.6
20260905133017 26 0 0.0 0.0 0.00 0.00 0.00 86 1015.5
20260905132517 26 0 0.0 0.0 0.00 0.00 0.00 87 1015.5
20260905132017 26 0 0.0 0.0 0.00 0.00 0.00 88 1015.5
20260905131518 26 0 0.0 0.0 0.00 0.00 0.00 88 1015.6
20260905131017 25 0 0.0 0.0 0.00 0.00 0.00 89 1015.7
20260905130517 25 0 0.0 0.0 0.00 0.00 0.00 90 1015.8
20260905130017 25 0 0.0 0.0 0.00 0.00 0.00 90 1015.8
20260905125517 25 0 0.0 0.0 0.00 0.00 0.00 91 1015.7
20260905125017 25 0 0.0 0.0 0.00 0.00 0.00 91 1015.8
20260905124517 25 0 0.0 0.0 0.00 0.00 0.00 91 1015.8
20260905124017 25 0 0.0 0.0 0.00 0.00 0.00 91 1015.7
20260905123517 24 0 0.0 0.0 0.00 0.00 0.00 91 1015.8
20260905123017 24 0 0.0 0.0 0.00 0.00 0.00 91 1015.8
20260905122517 24 0 0.0 0.0 0.00 0.00 0.00 91 1015.7
20260905122017 24 0 0.0 0.0 0.00 0.00 0.00 92 1015.6
20260905121517 24 0 0.0 0.0 0.00 0.00 0.00 92 1015.6
20260905121017 24 0 0.0 0.0 0.00 0.00 0.00 92 1015.5
20260905120517 24 0 0.0 0.0 0.00 0.00 0.00 91 1015.5
20260905120017 24 0 0.0 0.0 0.00 0.00 0.00 92 1015.6
20260905115517 24 0 0.0 0.0 0.00 0.00 0.00 92 1015.5
20260905115017 24 0 0.0 0.0 0.00 0.00 0.00 91 1015.5
20260905114518 23 0 0.0 0.0 0.00 0.00 0.00 91 1015.4
20260905114017 23 0 0.0 0.0 0.00 0.00 0.00 91 1015.4
20260905113517 23 0 0.0 0.0 0.00 0.00 0.00 91 1015.4
20260905113018 24 0 0.0 0.0 0.00 0.00 0.00 91 1015.3
20260905112517 23 0 0.0 0.0 0.00 0.00 0.00 91 1015.3
20260905112017 24 0 0.0 0.0 0.00 0.00 0.00 91 1015.3
20260905111517 24 0 0.0 0.0 0.00 0.00 0.00 91 1015.3
20260905111017 24 0 0.0 0.0 0.00 0.00 0.00 91 1015.2
20260905110517 24 0 0.0 0.0 0.00 0.00 0.00 91 1015.2
20260905110017 24 0 0.0 0.0 0.00 0.00 0.00 91 1015.2
20260905105517 24 0 0.0 0.0 0.00 0.00 0.00 90 1015.3
20260905105018 24 0 0.0 0.0 0.00 0.00 0.00 90 1015.2
20260905104517 24 0 0.0 0.0 0.00 0.00 0.00 90 1015.2
20260905104017 24 0 0.0 0.0 0.00 0.00 0.00 90 1015.2
20260905103517 24 0 0.0 0.0 0.00 0.00 0.00 90 1015.1
20260905103017 24 0 0.0 0.0 0.00 0.00 0.00 90 1015.1
20260905102517 24 0 0.0 0.0 0.00 0.00 0.00 89 1015.1
20260905102017 24 0 0.0 0.0 0.00 0.00 0.00 89 1015.1
20260905101517 24 0 0.0 0.0 0.00 0.00 0.00 89 1015.1
20260905101017 24 0 0.0 0.0 0.00 0.00 0.00 89 1015.2
20260905100517 24 0 0.0 0.0 0.00 0.00 0.00 89 1015.2
20260905100017 24 0 0.0 0.0 0.00 0.00 0.00 89 1015.1
20260905095517 24 0 0.0 0.0 0.00 0.00 0.00 88 1015.1
20260905095017 24 0 0.0 0.0 0.00 0.00 0.00 88 1015.0
20260905094517 25 0 0.0 0.0 0.00 0.00 0.00 89 1014.9
20260905094017 24 0 0.0 0.0 0.00 0.00 0.00 88 1014.9
20260905093518 25 0 0.0 0.0 0.00 0.00 0.00 88 1014.9
20260905093017 25 0 0.0 0.0 0.00 0.00 0.00 88 1015.0
20260905092517 25 0 0.0 0.0 0.00 0.00 0.00 88 1015.0
20260905092017 25 0 0.0 0.0 0.00 0.00 0.00 88 1015.0
20260905091517 25 0 0.0 0.0 0.00 0.00 0.00 88 1015.0
20260905091018 25 0 0.0 0.0 0.00 0.00 0.00 88 1014.9
20260905090517 25 0 0.0 0.0 0.00 0.00 0.00 87 1015.0
20260905090017 25 0 0.0 0.0 0.00 0.00 0.00 87 1015.0
20260905085517 25 0 0.0 0.0 0.00 0.00 0.00 87 1015.0
20260905085017 25 0 0.0 0.0 0.00 0.00 0.00 87 1014.9
20260905084517 25 0 0.0 0.0 0.00 0.00 0.00 87 1014.8
20260905084017 25 0 0.0 0.0 0.00 0.00 0.00 87 1014.8
20260905083517 25 0 0.0 0.0 0.00 0.00 0.00 87 1014.8
20260905083017 25 0 0.0 0.0 0.00 0.00 0.00 87 1014.8
20260905082517 25 0 0.0 0.0 0.00 0.00 0.00 87 1014.8
20260905082017 25 0 0.0 0.0 0.00 0.00 0.00 87 1014.8
20260905081517 25 0 0.0 0.0 0.00 0.00 0.00 87 1014.7
20260905081018 25 0 0.0 0.0 0.00 0.00 0.00 87 1014.7
20260905080517 25 0 0.0 0.0 0.00 0.00 0.00 87 1014.7
20260905080017 25 0 0.0 0.0 0.00 0.00 0.00 86 1014.6
20260905075517 25 0 0.0 0.0 0.00 0.00 0.00 86 1014.6
20260905075017 25 0 0.0 0.0 0.00 0.00 0.00 86 1014.6
20260905074517 25 0 0.0 0.0 0.00 0.00 0.00 86 1014.6
20260905074017 25 0 0.0 0.0 0.00 0.00 0.00 86 1014.6
20260905073517 25 0 0.0 0.0 0.00 0.00 0.00 86 1014.6
20260905073017 25 0 0.0 0.0 0.00 0.00 0.00 86 1014.5
20260905072517 25 0 0.0 0.0 0.00 0.00 0.00 86 1014.5
20260905072018 25 0 0.0 0.0 0.00 0.00 0.00 86 1014.5
20260905071517 25 0 0.0 0.0 0.00 0.00 0.00 85 1014.5
20260905071017 25 0 0.0 0.0 0.00 0.00 0.00 85 1014.5
20260905070517 25 0 0.0 0.0 0.00 0.00 0.00 85 1014.4
20260905070018 25 0 0.0 0.0 0.00 0.00 0.00 85 1014.4
20260905065517 25 0 0.0 0.0 0.00 0.00 0.00 84 1014.5
20260905065017 25 0 0.0 0.0 0.00 0.00 0.00 84 1014.4